When you browse on this site, cookies collect data to enhance your experience and personalize the content and advertising you see.
Visit our Privacy Policy to learn more. By continuing to use the site, you agree to this use of cookies and data.
  • In Sweden
  • List of Countries
  • For 7 days
  • Water Temperature
  • Weather Map
  • Weather Widgets
  • user-avatar
    Login

    Hourly Weather Carrieres-sous-Poissy

    Today, 21 August, Wednesday

    Time Temperature Precipitation Wind Pressure Humidity
    00:00 +15°C° 0 mm 1 mps 768 mmHg 73%
    01:00 +15°C° 0 mm 1 mps 768 mmHg 74%
    02:00 +14°C° 0 mm 1 mps 767 mmHg 74%
    03:00 +14°C° 0 mm 1 mps 767 mmHg 75%
    04:00 +14°C° 0 mm 1 mps 767 mmHg 73%
    05:00 +14°C° 0 mm 1 mps 767 mmHg 72%
    06:00 +15°C° 0 mm 1 mps 768 mmHg 71%
    07:00 +18°C° 0 mm 1 mps 768 mmHg 63%
    08:00 +19°C° 0 mm 1 mps 768 mmHg 56%
    09:00 +21°C° 0 mm 1 mps 768 mmHg 49%
    10:00 +23°C° 0 mm 1 mps 768 mmHg 45%
    11:00 +24°C° 0 mm 1 mps 767 mmHg 42%
    12:00 +25°C° 0 mm 1 mps 767 mmHg 38%
    13:00 +25°C° 0 mm 1 mps 767 mmHg 36%
    14:00 +26°C° 0 mm 1 mps 766 mmHg 35%
    15:00 +26°C° 0 mm 1 mps 766 mmHg 33%
    16:00 +25°C° 0 mm 1 mps 766 mmHg 36%
    17:00 +24°C° 0 mm 2 mps 766 mmHg 39%
    18:00 +24°C° 0 mm 2 mps 766 mmHg 41%
    19:00 +21°C° 0 mm 2 mps 766 mmHg 43%
    20:00 +20°C° 0 mm 2 mps 766 mmHg 45%
    21:00 +19°C° 0 mm 2 mps 766 mmHg 47%
    22:00 +19°C° 0 mm 1 mps 766 mmHg 49%
    23:00 +19°C° 0 mm 1 mps 766 mmHg 51%

    Tomorrow, 22 August, Thursday

    Time Temperature Precipitation Wind Pressure Humidity
    00:00 +18°C° 0 mm 1 mps 766 mmHg 53%
    01:00 +18°C° 0 mm 1 mps 766 mmHg 54%
    02:00 +16°C° 0 mm 1 mps 766 mmHg 55%
    03:00 +16°C° 0 mm 1 mps 765 mmHg 56%
    04:00 +16°C° 0 mm 1 mps 766 mmHg 57%
    05:00 +16°C° 0 mm 1 mps 766 mmHg 57%
    06:00 +16°C° 0 mm 1 mps 766 mmHg 57%
    07:00 +19°C° 0 mm 1 mps 766 mmHg 52%
    08:00 +21°C° 0 mm 1 mps 766 mmHg 46%
    09:00 +23°C° 0 mm 1 mps 767 mmHg 40%
    10:00 +25°C° 0 mm 2 mps 766 mmHg 38%
    11:00 +26°C° 0 mm 2 mps 766 mmHg 35%
    12:00 +27°C° 0 mm 2 mps 766 mmHg 33%
    13:00 +27°C° 0 mm 2 mps 766 mmHg 31%
    14:00 +28°C° 0 mm 2 mps 765 mmHg 30%
    15:00 +28°C° 0 mm 2 mps 765 mmHg 29%
    16:00 +27°C° 0 mm 2 mps 765 mmHg 33%
    17:00 +26°C° 0 mm 2 mps 765 mmHg 36%
    18:00 +25°C° 0 mm 2 mps 765 mmHg 40%
    19:00 +24°C° 0 mm 2 mps 765 mmHg 44%
    20:00 +21°C° 0 mm 2 mps 765 mmHg 49%
    21:00 +20°C° 0 mm 2 mps 766 mmHg 53%
    22:00 +19°C° 0 mm 2 mps 766 mmHg 56%
    23:00 +19°C° 0 mm 2 mps 766 mmHg 60%

    Day after tomorrow, 23 August, Friday

    Time Temperature Precipitation Wind Pressure Humidity
    00:00 +18°C° 0 mm 2 mps 765 mmHg 63%
    01:00 +17°C° 0 mm 2 mps 765 mmHg 64%
    02:00 +17°C° 0 mm 2 mps 765 mmHg 66%
    03:00 +16°C° 0 mm 2 mps 765 mmHg 67%
    04:00 +17°C° 0 mm 2 mps 765 mmHg 66%
    05:00 +18°C° 0 mm 1 mps 765 mmHg 66%
    06:00 +18°C° 0 mm 1 mps 765 mmHg 65%
    07:00 +19°C° 0 mm 2 mps 765 mmHg 60%
    08:00 +21°C° 0 mm 2 mps 765 mmHg 54%
    09:00 +24°C° 0 mm 2 mps 765 mmHg 49%
    10:00 +25°C° 0 mm 2 mps 764 mmHg 46%
    11:00 +26°C° 0 mm 3 mps 764 mmHg 43%
    12:00 +28°C° 0 mm 3 mps 764 mmHg 40%
    13:00 +28°C° 0 mm 3 mps 764 mmHg 38%
    14:00 +29°C° 0 mm 2 mps 763 mmHg 36%
    15:00 +30°C° 0 mm 2 mps 763 mmHg 34%
    16:00 +29°C° 0 mm 3 mps 763 mmHg 38%
    17:00 +28°C° 0 mm 3 mps 762 mmHg 43%
    18:00 +27°C° 0 mm 3 mps 762 mmHg 47%
    19:00 +25°C° 0 mm 3 mps 762 mmHg 50%
    20:00 +24°C° 0 mm 3 mps 763 mmHg 54%
    21:00 +23°C° 0 mm 2 mps 763 mmHg 58%
    22:00 +21°C° 0 mm 2 mps 762 mmHg 61%
    23:00 +20°C° 0 mm 2 mps 762 mmHg 64%

    24 August, Saturday

    Time Temperature Precipitation Wind Pressure Humidity
    00:00 +20°C° 0 mm 2 mps 762 mmHg 68%
    01:00 +19°C° 0 mm 2 mps 762 mmHg 70%
    02:00 +19°C° 0 mm 2 mps 761 mmHg 72%
    03:00 +18°C° 0 mm 2 mps 761 mmHg 74%
    04:00 +19°C° 0 mm 1 mps 761 mmHg 74%
    05:00 +19°C° 0 mm 1 mps 761 mmHg 74%
    06:00 +19°C° 0 mm 1 mps 760 mmHg 75%
    07:00 +21°C° 0 mm 2 mps 761 mmHg 67%
    08:00 +24°C° 0 mm 2 mps 761 mmHg 60%
    09:00 +26°C° 0 mm 2 mps 761 mmHg 52%
    10:00 +28°C° 0 mm 2 mps 760 mmHg 46%
    11:00 +29°C° 0 mm 2 mps 760 mmHg 40%
    12:00 +31°C° 0 mm 2 mps 760 mmHg 34%
    13:00 +31°C° 0 mm 2 mps 759 mmHg 32%
    14:00 +32°C° 0 mm 1 mps 759 mmHg 29%
    15:00 +32°C° 0 mm 1 mps 759 mmHg 27%
    16:00 +31°C° 0 mm 1 mps 759 mmHg 30%
    17:00 +30°C° 0 mm 1 mps 758 mmHg 32%
    18:00 +29°C° 0 mm 1 mps 758 mmHg 35%
    19:00 +28°C° 0 mm 1 mps 758 mmHg 39%
    20:00 +27°C° 0 mm 2 mps 759 mmHg 43%
    21:00 +25°C° 0 mm 2 mps 759 mmHg 46%
    22:00 +25°C° 0 mm 2 mps 759 mmHg 49%
    23:00 +24°C° 0 mm 2 mps 759 mmHg 52%

    25 August, Sunday

    Time Temperature Precipitation Wind Pressure Humidity
    00:00 +23°C° 0 mm 1 mps 758 mmHg 55%
    01:00 +23°C° 0 mm 1 mps 758 mmHg 58%
    02:00 +22°C° 0 mm 1 mps 758 mmHg 61%
    03:00 +22°C° 0 mm 1 mps 758 mmHg 64%
    04:00 +22°C° 0 mm 1 mps 758 mmHg 65%
    05:00 +22°C° 0 mm 1 mps 758 mmHg 67%
    06:00 +22°C° 0 mm 1 mps 758 mmHg 68%
    07:00 +24°C° 0 mm 1 mps 758 mmHg 60%
    08:00 +26°C° 0 mm 1 mps 758 mmHg 52%
    09:00 +28°C° 0 mm 2 mps 758 mmHg 44%
    10:00 +30°C° 0 mm 2 mps 758 mmHg 39%
    11:00 +32°C° 0 mm 2 mps 758 mmHg 33%
    12:00 +34°C° 0 mm 2 mps 758 mmHg 28%
    13:00 +34°C° 0 mm 1 mps 757 mmHg 26%
    14:00 +35°C° 0 mm 1 mps 757 mmHg 24%
    15:00 +33°C° 0 mm 0 mps 757 mmHg 22%
    16:00 +34°C° 0 mm 1 mps 757 mmHg 25%
    17:00 +33°C° 0 mm 1 mps 757 mmHg 28%
    18:00 +31°C° 0 mm 2 mps 757 mmHg 32%
    19:00 +30°C° 0 mm 1 mps 757 mmHg 35%
    20:00 +28°C° 0 mm 1 mps 757 mmHg 39%
    21:00 +27°C° 0 mm 1 mps 758 mmHg 43%
    22:00 +26°C° 0 mm 1 mps 758 mmHg 47%
    23:00 +25°C° 0 mm 1 mps 758 mmHg 50%

    26 August, Monday

    Time Temperature Precipitation Wind Pressure Humidity
    00:00 +24°C° 0 mm 1 mps 758 mmHg 53%
    01:00 +23°C° 0 mm 2 mps 758 mmHg 57%
    02:00 +21°C° 0 mm 2 mps 758 mmHg 60%
    03:00 +20°C° 0 mm 2 mps 758 mmHg 64%
    04:00 +20°C° 0 mm 2 mps 758 mmHg 67%
    05:00 +20°C° 0 mm 2 mps 758 mmHg 69%
    06:00 +19°C° 0 mm 2 mps 759 mmHg 72%
    07:00 +21°C° 0 mm 3 mps 759 mmHg 66%
    08:00 +22°C° 0 mm 3 mps 760 mmHg 60%
    09:00 +24°C° 0 mm 3 mps 760 mmHg 55%
    10:00 +25°C° 0 mm 3 mps 760 mmHg 53%
    11:00 +26°C° 0 mm 3 mps 761 mmHg 52%
    12:00 +27°C° 0 mm 4 mps 761 mmHg 50%
    13:00 +27°C° 0 mm 4 mps 761 mmHg 48%
    14:00 +27°C° 0 mm 4 mps 761 mmHg 47%
    15:00 +28°C° 0 mm 4 mps 761 mmHg 45%
    16:00 +27°C° 0 mm 3 mps 761 mmHg 47%
    17:00 +26°C° 0 mm 3 mps 762 mmHg 50%
    18:00 +25°C° 0 mm 3 mps 762 mmHg 52%
    19:00 +22°C° 0 mm 3 mps 762 mmHg 56%
    20:00 +21°C° 0 mm 3 mps 763 mmHg 59%
    21:00 +20°C° 0 mm 2 mps 763 mmHg 62%
    22:00 +19°C° 0 mm 2 mps 764 mmHg 64%
    23:00 +19°C° 0 mm 2 mps 764 mmHg 66%
    Show more